sat.trackr.live / text

‹ back to catalog

2024-105A

NORAD 59917 · 2024-105A

PAYLOAD ACTIVE UNKNOWN

§ Identity

Operator
Country
PRC
Launch date
2024-05-30
Launch site
JSC
Launch vehicle
Mass (kg)
RCS (m²)

External: N2YO · Heavens-Above · Gunter

§ Orbital elements

Epoch: 2026-05-25T04:30:53.987040Z

Period
94.93 min
Inclination
97.5841°
Eccentricity
0.0011934
Mean motion
15.16941024 rev/d
Perigee alt
506.9 km
Apogee alt
523.3 km
Semi-major
6,893.2 km
B*
1.4886e-4
RAAN
160.4102°
Arg perigee
313.3650°
Mean anomaly
46.6588°
Rev number
10,954

§ Raw data

2024-105A1 59917U 24105A   26145.18812485  .00002872  00000+0  14886-3 0  99962 59917  97.5841 160.4102 0011934 313.3650  46.6588 15.16941024109549

JSON: /api/v1/satellites/59917 · /tle

For live sub-satellite position, see the globe view (requires WebGL).

§ Visibility from observer

Set your observer location to see the next 7 days of passes ≥ 10°. The values pass through the URL so the page stays shareable.

No JS? Fill the form by hand. The geolocation button needs JavaScript.

§ Radio — SatNOGS DB

ModeDescriptionDownlinkUplink
FM Mode U - Transmitter 401.205 MHz
FM Telemetry 400.600 MHz

2 transmitters · refreshed weekly from db.satnogs.org